www.pogodaiklimat.ru

Погода и климат >> Архив погоды >> Норвегия >> Аэропорт Орста-Волда


ПОГОДА в Аэропорту Орста-Волда

  • Прогноз погоды в Аэропорту Орста-Волда
  • Монитор погоды в Аэропорту Орста-Волда

АРХИВ ПОГОДЫ в Аэропорту Орста-Волда

Время (UTC), дата Ветер
(напр.,м/с)
 
Видим.   Явления Облачность Т
(С)
Тd
(С)
f
(%)
Тe
(С)
Тes
(С)
Комфортность P
(гПа)
Po
(гПа)
Тmin
(С)
Tmax
(С)
R
(мм)
R24
(мм)
S
(см)
04 19.08 З 2
{4}
н/о н/о +11.8 +7.7 76 +11 +11 994.7 986.0
05 19.08 З 2
{4}
н/о н/о +16.6 +5.5 48 +17 +17 994.2 985.6
06 19.08 З 2
{4}
н/о н/о +14.3 +8.6 69 +14 +14 994.2 985.5 +8.0 +16.9
07 19.08 З 1
{4}
н/о н/о +14.6 +8.9 69 +15 +15 994.3 985.6
08 19.08 СЗ 2
{7}
н/о н/о +16.6 +6.6 52 +17 +17 994.7 986.1
09 19.08 З 5
{9}
н/о н/о +14.9 +7.5 61 +14 +14 995.9 987.2
10 19.08 С 2
{8}
н/о н/о +15.3 +7.6 60 +15 +15 996.3 987.6
11 19.08 Ю 2
{6}
н/о н/о +15.9 +7.9 59 +16 +16 996.7 988.0
12 19.08 З 5
{9}
н/о н/о +16.2 +8.2 59 +15 +15 997.2 988.5
13 19.08 З 2
{10}
н/о н/о +15.4 +9.5 68 +15 +15 998.2 989.6
14 19.08 ЮВ 2
{8}
н/о н/о +15.0 +9.9 72 +15 +15 998.8 990.1
15 19.08 ЮЗ 4
{7}
н/о н/о +14.8 +9.5 71 +14 +14 999.5 990.8
16 19.08 С 2
{6}
н/о н/о +15.4 +10.1 71 +15 +15 1000.0 991.3
17 19.08 С 2
{5}
н/о н/о +15.1 +9.2 68 +15 +15 1000.1 991.4
18 19.08 З 2
{10}
н/о н/о +14.4 +9.1 70 +14 +14 1000.5 991.7 +13.8 +17.1
19 19.08 З 1
{8}
н/о н/о +12.2 +10.4 89 +12 +12 1001.1 992.3
20 19.08 В 1
{3}
н/о н/о +11.7 +10.9 95 +11 +11 1001.7 992.9
21 19.08 СЗ 1
{3}
н/о н/о +11.5 +10.8 95 +11 +11 1002.3 993.4
22 19.08 ЮЗ 1
{3}
н/о н/о +11.7 +10.8 94 +11 +11 1002.7 993.8
23 19.08 СВ 1
{3}
н/о н/о +11.8 +10.7 93 +12 +12 1003.0 994.2
00 20.08 С 1
{8}
н/о н/о +11.5 +10.7 95 +11 +11 1003.3 994.4
01 20.08 В 2
{4}
н/о н/о +11.5 +10.7 95 +10 +10 1003.5 994.7
02 20.08 СЗ 1
{4}
н/о н/о +11.7 +10.4 92 +11 +11 1003.8 994.9
03 20.08 СВ 1
{2}
н/о н/о +11.4 +10.5 94 +11 +11 1004.5 995.7
04 20.08 СВ 1
{2}
н/о н/о +11.4 +10.7 95 +11 +11 1005.0 996.1
05 20.08 З 1
{2}
н/о н/о +11.4 +10.7 95 +11 +11 1005.4 996.6
06 20.08 ЮЗ 1
{4}
н/о н/о +11.5 +10.8 95 +11 +11 1005.7 996.8 +11.3 +14.4
07 20.08 В 1
{2}
н/о н/о +12.0 +11.2 95 +12 +12 1006.2 997.3
08 20.08 З 1
{1}
н/о н/о +12.7 +11.2 91 +13 +13 1006.8 998.0
09 20.08 В 2
{4}
н/о н/о +12.4 +11.4 94 +11 +11 1007.6 998.8
10 20.08 ЮВ 2
{4}
н/о н/о +13.1 +11.3 89 +12 +12 1008.1 999.3
11 20.08 штиль 0
{3}
н/о н/о +14.4 +10.6 78 +14 +14 1008.6 999.8
12 20.08 Ю 3
{6}
н/о н/о +14.8 +10.5 75 +14 +14 1009.1 1000.3
13 20.08 Ю 3
{6}
н/о н/о +13.4 +9.9 79 +12 +12 1010.1 1001.3
14 20.08 Ю 2
{5}
н/о н/о +14.1 +9.5 74 +14 +14 1010.9 1002.1
15 20.08 ЮЗ 4
{7}
н/о н/о +16.1 +8.7 61 +15 +15 1011.3 1002.5
16 20.08 ЮЗ 5
{8}
н/о н/о +13.4 +8.9 74 +11 +11 1012.3 1003.5
17 20.08 ЮЗ 3
{7}
н/о н/о +13.0 +9.1 77 +12 +12 1013.1 1004.2
18 20.08 Ю 2
{8}
н/о н/о +12.9 +8.1 73 +12 +12 1013.6 1004.7 +11.5 +16.2
19 20.08 ЮЗ 3
{6}
н/о н/о +13.0 +7.7 70 +12 +12 1014.1 1005.2
20 20.08 ЮЗ 2
{5}
н/о н/о +12.9 +7.4 69 +12 +12 1014.7 1005.8
21 20.08 ЮЗ 7
{11}
н/о н/о +12.7 +7.0 68 +10 +10 1015.3 1006.3
22 20.08 Ю 1
{10}
н/о н/о +11.9 +7.9 76 +12 +12 1016.0 1007.0
23 20.08 З 1
{4}
н/о н/о +11.2 +8.9 86 +11 +11 1016.7 1007.7
00 21.08 ЮЗ 2
{11}
н/о н/о +11.4 +8.5 82 +10 +10 1017.1 1008.2
01 21.08 ЮЗ 2
{6}
н/о н/о +11.6 +8.1 79 +11 +11 1017.6 1008.6
02 21.08 ЮЗ 4
{6}
н/о н/о +11.5 +7.7 77 +9 +9 1018.1 1009.1
03 21.08 ЮЗ 3
{5}
н/о н/о +10.3 +8.8 90 +8 +8 1018.8 1009.7
04 21.08 ЮЗ 2
{5}
н/о н/о +10.2 +8.3 88 +9 +9 1019.2 1010.2
05 21.08 СЗ 1
{5}
н/о н/о +10.3 0.0 49 +10 +10 1019.6 1010.7
06 21.08 Ю 2
{6}
н/о н/о +11.4 +6.4 71 +10 +10 1020.2 1011.2 +9.9 +13.3
07 21.08 Ю 3
{4}
н/о н/о +12.1 +6.2 67 +11 +11 1020.7 1011.7
08 21.08 ЮЗ 3
{4}
н/о н/о +12.4 +6.6 68 +11 +11 1021.2 1012.2
09 21.08 З 4
{6}
н/о н/о +12.7 +6.1 64 +11 +11 1021.6 1012.6
10 21.08 З 3
{7}
н/о н/о +13.2 +6.5 64 +12 +12 1021.7 1012.8
11 21.08 З 3
{5}
н/о н/о +13.8 +5.7 58 +13 +13 1021.7 1012.8
12 21.08 З 2
{7}
н/о н/о +14.4 +6.7 60 +14 +14 1021.8 1012.8
13 21.08 З 2
{5}
н/о н/о +14.6 +6.6 59 +14 +14 1021.7 1012.8
14 21.08 З 2
{5}
н/о н/о +14.5 +6.4 58 +14 +14 1021.8 1012.9
15 21.08 З 1
{3}
н/о н/о +15.2 +6.0 54 +16 +16 1021.5 1012.6
16 21.08 В 1
{3}
н/о н/о +15.3 +5.8 53 +16 +16 1021.4 1012.5
17 21.08 С 1
{3}
н/о н/о +15.5 +6.0 53 +16 +16 1021.1 1012.2
18 21.08 СЗ 1
{5}
н/о н/о +15.2 +5.5 52 +16 +16 1020.7 1011.8 +11.4 +16.5
19 21.08 штиль 0
{2}
н/о н/о +11.0 +8.0 82 +10 +10 1020.7 1011.7
20 21.08 штиль 0
{2}
н/о н/о +8.8 +7.0 88 +8 +8 1020.6 1011.6
21 21.08 З 1
{1}
н/о н/о +7.4 +6.1 91 +6 +6 1020.3 1011.2
22 21.08 З 1
{1}
н/о н/о +7.6 +6.6 93 +7 +7 1020.0 1010.9
23 21.08 штиль 0
{1}
н/о н/о +6.6 +5.5 93 +6 +6 1019.9 1010.7
00 22.08 штиль 0
{2}
н/о н/о +5.9 +5.4 97 +5 +5 1019.7 1010.5
01 22.08 ЮЗ 1
{2}
н/о н/о +6.8 +6.0 95 +6 +6 1018.9 1009.8
02 22.08 З 1
{3}
н/о н/о +7.2 +6.2 93 +6 +6 1018.1 1008.9
03 22.08 СЗ 1
{3}
н/о н/о +8.9 +6.5 85 +8 +8 1017.0 1008.0
04 22.08 З 1
{3}
н/о н/о +9.5 +6.7 83 +9 +9 1016.1 1007.1
05 22.08 З 1
{3}
н/о н/о +9.4 +7.2 86 +9 +9 1015.4 1006.4
06 22.08 ЮЗ 1
{3}
н/о н/о +11.1 +7.3 77 +11 +11 1014.5 1005.6 +5.7 +15.3
07 22.08 ЮВ 1
{3}
н/о н/о +12.1 +7.3 72 +12 +12 1013.8 1004.9
08 22.08 штиль 0
{3}
н/о н/о +11.9 +8.4 79 +11 +11 1013.2 1004.3
09 22.08 З 2
{4}
н/о н/о +13.8 +10.0 78 +13 +13 1012.7 1003.8
10 22.08 З 2
{4}
н/о н/о +14.7 +8.3 65 +14 +14 1012.1 1003.3
11 22.08 ЮЗ 2
{8}
н/о н/о +15.2 +6.9 58 +15 +15 1011.7 1002.9
12 22.08 СВ 6
{12}
н/о н/о +15.5 +7.8 60 +14 +14 1011.8 1003.0
13 22.08 З 5
{13}
н/о н/о +16.8 +7.7 55 +16 +16 1011.4 1002.7
14 22.08 ЮЗ 4
{10}
н/о н/о +17.8 +7.7 52 +18 +18 1011.2 1002.5
15 22.08 З 4
{10}
н/о н/о +18.2 +8.6 53 +18 +18 1011.2 1002.5
16 22.08 ЮЗ 4
{9}
н/о н/о +16.0 +9.1 64 +15 +15 1011.7 1002.9
17 22.08 ЮЗ 2
{7}
н/о н/о +14.9 +8.9 67 +15 +15 1011.7 1002.9
18 22.08 З 2
{13}
н/о н/о +14.0 +9.9 76 +14 +14 1012.1 1003.3 +11.0 +18.4
19 22.08 штиль 0
{5}
н/о н/о +12.6 +10.5 87 +12 +12 1012.8 1003.9
20 22.08 СВ 1
{2}
н/о н/о +11.0 +9.7 92 +11 +11 1012.8 1003.9
21 22.08 СВ 1
{3}
н/о н/о +11.0 +10.0 94 +11 +11 1012.5 1003.6
22 22.08 Ю 2
{8}
н/о н/о +12.7 +8.3 75 +12 +12 1012.1 1003.2
23 22.08 ЮЗ 1
{5}
н/о н/о +11.0 +9.0 87 +11 +11 1011.5 1002.6
00 23.08 З 1
{8}
н/о н/о +11.1 +8.6 85 +11 +11 1011.1 1002.2
01 23.08 З 2
{5}
н/о н/о +11.5 +8.2 80 +10 +10 1010.2 1001.3
02 23.08 В 1
{4}
н/о н/о +10.3 +9.0 92 +10 +10 1010.6 1001.6
03 23.08 штиль 0
{6}
н/о н/о +10.3 +8.8 90 +10 +10 1009.7 1000.8
04 23.08 В 1
{5}
н/о н/о +10.3 +8.7 90 +10 +10 1009.7 1000.7
05 23.08 ЮЗ 2
{4}
н/о н/о +11.2 +8.4 83 +10 +10 1010.3 1001.4
06 23.08 СЗ 1
{6}
н/о н/о +11.7 +9.3 85 +12 +12 1010.9 1002.0 +9.9 +14.1
07 23.08 З 1
{3}
н/о н/о +11.9 +10.1 89 +12 +12 1011.5 1002.6
08 23.08 В 1
{3}
н/о н/о +13.2 +10.0 81 +13 +13 1012.0 1003.1
09 23.08 штиль 0
{2}
н/о н/о +14.1 +9.8 75 +14 +14 1012.7 1003.8
10 23.08 З 1
{2}
н/о н/о +14.5 +10.9 79 +15 +15 1013.6 1004.7
11 23.08 ЮЗ 1
{2}
н/о н/о +13.9 +11.4 85 +14 +14 1014.6 1005.7
12 23.08 В 1
{3}
н/о н/о +13.2 +11.6 90 +13 +13 1015.5 1006.6
13 23.08 штиль 0
{4}
н/о н/о +13.8 +11.9 88 +13 +13 1016.0 1007.2
14 23.08 В 1
{2}
н/о н/о +14.1 +12.4 89 +14 +14 1016.6 1007.7
15 23.08 ЮЗ 1
{2}
н/о н/о +14.0 +12.1 88 +14 +14 1017.2 1008.3
16 23.08 ЮВ 1
{4}
н/о н/о +13.4 +12.2 92 +14 +14 1017.8 1008.9
17 23.08 В 2
{2}
н/о н/о +13.2 +12.1 93 +12 +12 1018.1 1009.2
18 23.08 штиль 0
{4}
н/о н/о +13.5 +12.2 92 +13 +13 1018.7 1009.7 +11.5 +14.9
19 23.08 СВ 1
{3}
н/о н/о +12.9 +11.8 93 +13 +13 1019.1 1010.1
20 23.08 СВ 1
{3}
н/о н/о +12.3 +11.4 94 +12 +12 1019.5 1010.6
21 23.08 штиль 0
{2}
н/о н/о +11.7 +11.0 95 +11 +11 1019.7 1010.7
22 23.08 штиль 0 н/о н/о +11.3 +10.6 95 +11 +11 1019.8 1010.8
23 23.08 ЮЗ 1
{2}
н/о н/о +11.6 +10.9 95 +11 +11 1020.1 1011.1
00 24.08 штиль 0
{3}
н/о н/о +12.1 +10.9 92 +11 +11 1020.5 1011.5
01 24.08 СВ 1
{2}
н/о н/о +11.9 +11.2 95 +12 +12 1020.9 1011.9
02 24.08 ЮЗ 1
{1}
н/о н/о +11.8 +11.1 95 +12 +12 1021.1 1012.1
03 24.08 штиль 0
{2}
н/о н/о +12.0 +11.4 96 +11 +11 1021.3 1012.3
04 24.08 С 1
{2}
н/о н/о +12.4 +11.7 95 +12 +12 1021.5 1012.5
05 24.08 СВ 1
{3}
н/о н/о +12.6 +11.8 95 +13 +13 1021.5 1012.6
06 24.08 С 1
{3}
н/о н/о +13.2 +12.5 96 +13 +13 1021.7 1012.8 +11.0 +13.4
07 24.08 С 1
{2}
н/о н/о +13.9 +13.0 94 +14 +14 1021.6 1012.7
08 24.08 ЮЗ 1
{2}
н/о н/о +15.0 +13.6 91 +15 +15 1021.7 1012.8
09 24.08 З 2
{3}
н/о н/о +16.3 +13.7 85 +16 +16 1021.6 1012.8
10 24.08 СВ 1
{4}
н/о н/о +17.2 +13.5 79 +18 +18 1021.4 1012.5
11 24.08 З 2
{5}
н/о н/о +17.5 +14.4 82 +18 +18 1021.0 1012.2
12 24.08 В 1
{5}
н/о н/о +19.5 +13.5 68 +22 +22 комфорт 1020.6 1011.9
13 24.08 СЗ 1
{5}
н/о н/о +19.9 +13.0 64 +23 +23 комфорт 1020.3 1011.6
14 24.08 З 3
{5}
н/о н/о +19.4 +12.7 65 +21 +21 комфорт 1020.6 1011.8
15 24.08 С 1
{7}
н/о н/о +19.7 +12.8 64 +22 +22 комфорт 1020.4 1011.7
16 24.08 З 1
{8}
н/о н/о +20.2 +13.1 64 +23 +23 комфорт 1020.0 1011.3
17 24.08 ЮЗ 2
{8}
н/о н/о +19.2 +14.0 72 +21 +21 комфорт 1019.6 1010.9
18 24.08 З 3
{8}
н/о н/о +19.6 +13.8 69 +22 +22 комфорт 1019.1 1010.4 +13.2 +20.4
19 24.08 З 3
{11}
н/о н/о +20.7 +12.0 57 +23 +23 комфорт 1019.2 1010.5
20 24.08 З 3
{10}
н/о н/о +20.4 +11.8 58 +23 +23 комфорт 1019.3 1010.6
21 24.08 СВ 3
{9}
н/о н/о +19.8 +12.2 62 +22 +22 комфорт 1019.4 1010.6
22 24.08 С 2
{9}
н/о н/о +20.5 +11.4 56 +23 +23 комфорт 1019.2 1010.5
23 24.08
{7}
н/о н/о +20.2 +11.6 58 1019.2 1010.4
00 25.08 З 3
{11}
н/о н/о +19.9 +12.0 60 +22 +22 комфорт 1018.7 1010.0
01 25.08 З 6
{13}
н/о н/о +20.1 +11.8 59 +22 +22 комфорт 1018.9 1010.2
02 25.08 З 5
{12}
н/о н/о +19.9 +11.4 58 +21 +21 комфорт 1018.7 1010.0
03 25.08 З 2
{9}
н/о н/о +20.0 +10.9 56 +22 +22 комфорт 1018.5 1009.8
04 25.08 З 5
{10}
н/о н/о +19.8 +10.5 55 +21 +21 комфорт 1018.7 1009.9
05 25.08 ЮЗ 3
{9}
н/о н/о +17.6 +11.9 69 +18 +18 1019.3 1010.5
06 25.08 Ю 2
{13}
н/о н/о +17.7 +11.7 68 +18 +18 1019.3 1010.5 +16.7 +20.8
07 25.08 СВ 1
{6}
н/о н/о +17.3 +12.3 72 +18 +18 1019.5 1010.7
08 25.08 З 3
{8}
н/о н/о +18.8 +10.4 58 +20 +20 1019.2 1010.5
09 25.08 ЮЗ 2
{8}
н/о н/о +18.1 +11.4 65 +19 +19 1019.7 1010.9
10 25.08 ЮЗ 3
{9}
н/о н/о +19.0 +12.0 64 +20 +20 1020.0 1011.2
11 25.08 З 5
{7}
н/о н/о +19.5 +12.1 62 +21 +21 комфорт 1020.3 1011.5
12 25.08 ЮЗ 4
{9}
н/о н/о +20.3 +12.6 61 +22 +22 комфорт 1020.2 1011.5
13 25.08 ЮЗ 5
{9}
н/о н/о +21.1 +14.0 64 +24 +24 комфорт 1020.4 1011.7
14 25.08 ЮЗ 3
{9}
н/о н/о +20.6 +12.9 61 +23 +23 комфорт 1020.4 1011.7
15 25.08 З 4
{8}
н/о н/о +21.0 +13.1 61 +24 +24 комфорт 1020.4 1011.7
16 25.08 З 2
{7}
н/о н/о +21.2 +12.9 59 +23 +23 комфорт 1020.0 1011.3
17 25.08 Ю 1
{6}
н/о н/о +20.6 +13.1 62 +24 +24 комфорт 1019.9 1011.2
18 25.08 В 1
{9}
н/о н/о +19.8 +14.0 69 +23 +23 комфорт 1020.0 1011.3 +16.0 +21.9
19 25.08 СВ 1
{5}
н/о н/о +16.8 +13.5 81 +18 +18 1020.4 1011.6
20 25.08 З 2
{4}
н/о н/о +16.9 +13.0 78 +17 +17 1020.5 1011.6
21 25.08 С 1
{6}
н/о н/о +17.3 +12.3 72 +18 +18 1020.5 1011.7
22 25.08 С 2
{5}
н/о н/о +16.2 +12.3 78 +16 +16 1020.4 1011.6
23 25.08 С 1
{3}
н/о н/о +15.1 +11.8 81 +16 +16 1020.4 1011.5
00 26.08 С 1
{6}
н/о н/о +18.9 +10.2 57 +21 +21 комфорт 1019.8 1011.0
01 26.08 С 2
{5}
н/о н/о +16.9 +10.8 67 +17 +17 1019.7 1010.9
02 26.08 СВ 1
{3}
н/о н/о +14.6 +11.3 81 +15 +15 1019.3 1010.4
03 26.08 С 1
{3}
н/о н/о +15.7 +11.6 77 +16 +16 1019.2 1010.3

 

Местоположение метеостанции Аэропорт Орста-Волда (Норвегия): широта 62.18 долгота 6.08 высота над уровнем моря 74 м.

В архиве по умолчанию представлена погода в Аэропорту Орста-Волда за последнюю неделю. Архивные данные за месяц целиком и за предыдущие месяцы, начиная с января 2011 года, Вы можете получить, выбрав интересующий диапазон дат из раскрывающегося списка и нажав кнопку "Ввод!".


*Определитесь, кто Вы:
робот инопланетянин человек

Внимание! Время в таблицах - всемирное. Для получения местного времени необходимо прибавить поправку, которая равна 1 ч.

Смотрите также архив погоды в соседних городах и на ближайших метеорологических станциях:

Погода в Фиске (Норвегия) (27 км)
Погода в Олесунне (Норвегия) (33 км)
Погода в Стрын-Крокене (Норвегия) (38 км)
Погода в Сандан аэропорту (Норвегия) (39 км)
Погода в Олесунн аэропорту (Норвегия) (43 км)
Погода на Маяке Svinoy (Норвегия) (45 км)
Погода в Берген аэропорту (Норвегия) (46 км)
Погода в Лебергсфелле (Норвегия) (56 км)
Погода на Маяке Krakenes (Норвегия) (59 км)
Погода в Рекдале (Норвегия) (63 км)

Пояснения к столбцам:

Ветер - указаны скорость ветра в м/с - средняя за 10 мин, порывы в срок и между сроками (в фигурных скобках) и направление, откуда дует ветер: С - северный, СВ - северо-восточный, В - восточный, ЮВ - юго-восточный, Ю - южный, ЮЗ - юго-западный, З - западный, СЗ - северо-западный.
Видимость - горизонтальная дальность видимости в метрах или километрах. При видимости от 1 до 10 км при отсутствии осадков обычно наблюдается дымка, при ухудшении видимости до 1 км и менее - туман. В сухую погоду видимость может ухудшаться дымом, пылью или мглою.
Явления - указаны атмосферные явления, наблюдавшиеся в срок или в последний час перед сроком; фигурными скобками обозначены явления, наблюдавшиеся между сроками (за 1-3 часа до срока); квадратными скобками обозначены град или гололедные отложения с указанием их диаметра в мм.
Облачность - указаны через наклонную черту общая и нижняя облачность в баллах и высота нижней границы облаков в метрах; квадратными скобками обозначены формы облаков: Ci - перистые, Cs - перисто-слоистые, Cc - перисто-кучевые, Ac - высококучевые, As - высокослоистые, Sc - слоисто-кучевые, Ns - слоисто-дождевые, Cu - кучевые, Cb - кучево-дождевые. Подробнее классификацию облаков см. в Атласе облаков (PDF).
T - Температура воздуха - температура, измеренная на высоте 2 м над землей.
Td - Температура точки росы - температура, при понижении до которой содержащийся в воздухе водяной пар достигнет насыщения.
f - Относительная влажность воздуха - влажноcть воздуха, измеренная на высоте 2 м над землей.
Te - Эффективная температура - температура, которую ощущает одетый по сезону человек в тени. Характеристика душности погоды. При расчете учитывается влияние влажности воздуха и скорости ветра на теплоощущения человека.
Tes - Эффективная температура на солнце - температура, которую ощущает человек, с поправкой на солнечный нагрев. Характеристика знойности погоды. Зависит от высоты солнца над горизонтом, облачности и скорости ветра. Ночью, в пасмурную погоду, а также при ветре 12 м/с и более поправка равна нулю.
P - Атмосферное давление - приведенное к уровню моря атмосферное давление.
Po - Атмосферное давление - измеренное на уровне метеостанции атмосферное давление.
Tmin - Минимальная температура - минимум температуры воздуха на высоте 2 м над землей.
Tmax - Максимальная температура - максимум температуры воздуха на высоте 2 м над землей.
R - Количество осадков - Количество выпавших осадков за период времени, мм. При наведении курсора мыши на число - период времени, за который выпало указанное количество осадков.
R24 - Количество осадков - Количество выпавших осадков за 24 часа, мм.
S - Снежный покров - Высота снежного покрова, см. При наведении курсора мыши на число - состояние снежного покрова и степень покрытия местности в баллах.